Time,TemperatureF,DewpointF,PressureIn,WindDirection,WindDirectionDegrees,WindSpeedMPH,WindSpeedGustMPH,Humidity,HourlyPrecipIn,Conditions,Clouds,dailyrainin,SoftwareType,DateUTC
2013-03-13 00:02:00,55.6,35.7,30.23,NNE,12,4.0,12.0,47,0.00,,,0.00,Wunderground v.1.15,2013-03-13 05:02:00,
2013-03-13 00:08:00,55.3,36.5,30.25,ESE,105,5.0,12.0,49,0.00,,,0.00,Wunderground v.1.15,2013-03-13 05:08:00,
2013-03-13 00:14:00,55.4,35.5,30.25,ESE,105,3.0,12.0,47,0.00,,,0.00,Wunderground v.1.15,2013-03-13 05:14:00,
2013-03-13 00:20:00,55.3,35.4,30.25,ESE,105,0.0,12.0,47,0.00,,,0.00,Wunderground v.1.15,2013-03-13 05:20:00,
2013-03-13 00:26:00,55.5,35.6,30.25,SW,222,0.0,12.0,47,0.00,,,0.00,Wunderground v.1.15,2013-03-13 05:26:00,
2013-03-13 00:32:00,55.2,35.8,30.25,SW,226,0.0,12.0,48,0.00,,,0.00,Wunderground v.1.15,2013-03-13 05:32:00,
2013-03-13 00:38:00,55.0,35.7,30.25,NNW,335,1.0,12.0,48,0.00,,,0.00,Wunderground v.1.15,2013-03-13 05:38:00,
2013-03-13 00:44:00,54.4,36.1,30.26,NNW,328,1.0,12.0,50,0.00,,,0.00,Wunderground v.1.15,2013-03-13 05:44:00,
2013-03-13 00:50:00,54.3,36.5,30.25,North,9,1.0,1.0,51,0.00,,,0.00,Wunderground v.1.15,2013-03-13 05:50:00,
2013-03-13 00:56:00,54.4,37.1,30.26,NNW,339,1.0,12.0,52,0.00,,,0.00,Wunderground v.1.15,2013-03-13 05:56:00,
2013-03-13 01:02:00,54.9,37.1,30.26,NNE,16,3.0,12.0,51,0.00,,,0.00,Wunderground v.1.15,2013-03-13 06:02:00,
2013-03-13 01:08:00,54.8,37.5,30.26,North,1,4.0,12.0,52,0.00,,,0.00,Wunderground v.1.15,2013-03-13 06:08:00,
2013-03-13 01:14:00,54.4,37.6,30.27,NNW,335,4.0,12.0,53,0.00,,,0.00,Wunderground v.1.15,2013-03-13 06:14:00,
2013-03-13 01:20:00,53.5,37.7,30.27,North,354,4.0,12.0,55,0.00,,,0.00,Wunderground v.1.15,2013-03-13 06:20:00,
2013-03-13 01:28:00,52.4,37.6,30.27,NNW,340,5.0,12.0,57,0.00,,,0.00,Wunderground v.1.15,2013-03-13 06:28:00,
2013-03-13 01:34:00,51.3,37.4,30.28,NNW,342,5.0,12.0,59,0.00,,,0.00,Wunderground v.1.15,2013-03-13 06:34:00,
2013-03-13 01:40:00,50.4,37.4,30.28,NNW,346,5.0,12.0,61,0.00,,,0.00,Wunderground v.1.15,2013-03-13 06:40:00,
2013-03-13 01:46:00,49.9,37.4,30.28,NNE,19,5.0,12.0,62,0.00,,,0.00,Wunderground v.1.15,2013-03-13 06:46:00,
2013-03-13 01:52:00,50.1,37.2,30.28,North,7,4.0,12.0,61,0.00,,,0.00,Wunderground v.1.15,2013-03-13 06:52:00,
2013-03-13 01:58:00,50.8,37.0,30.28,NE,44,3.0,12.0,59,0.00,,,0.00,Wunderground v.1.15,2013-03-13 06:58:00,
2013-03-13 02:04:00,51.3,36.6,30.29,NE,36,3.0,12.0,57,0.00,,,0.00,Wunderground v.1.15,2013-03-13 07:04:00,
2013-03-13 02:10:00,51.3,36.6,30.29,NNE,19,3.0,3.0,57,0.00,,,0.00,Wunderground v.1.15,2013-03-13 07:10:00,
2013-03-13 02:16:00,51.5,36.8,30.29,ENE,69,2.0,12.0,57,0.00,,,0.00,Wunderground v.1.15,2013-03-13 07:16:00,
2013-03-13 02:22:00,51.6,36.9,30.29,ESE,105,2.0,12.0,57,0.00,,,0.00,Wunderground v.1.15,2013-03-13 07:22:00,
2013-03-13 02:28:00,51.5,37.2,30.29,ESE,105,2.0,12.0,58,0.00,,,0.00,Wunderground v.1.15,2013-03-13 07:28:00,
2013-03-13 02:34:00,51.4,37.5,30.29,ESE,110,2.0,12.0,59,0.00,,,0.00,Wunderground v.1.15,2013-03-13 07:34:00,
2013-03-13 02:40:00,51.2,37.4,30.29,SE,135,1.0,12.0,59,0.00,,,0.00,Wunderground v.1.15,2013-03-13 07:40:00,
2013-03-13 02:46:00,51.0,37.2,30.30,NNE,22,1.0,12.0,59,0.00,,,0.00,Wunderground v.1.15,2013-03-13 07:46:00,
2013-03-13 02:52:00,50.5,37.1,30.30,NNE,13,2.0,12.0,60,0.00,,,0.00,Wunderground v.1.15,2013-03-13 07:52:00,
2013-03-13 02:58:00,50.3,36.9,30.30,NNE,20,3.0,12.0,60,0.00,,,0.00,Wunderground v.1.15,2013-03-13 07:58:00,
2013-03-13 03:04:00,50.1,37.2,30.30,NNE,23,2.0,12.0,61,0.00,,,0.00,Wunderground v.1.15,2013-03-13 08:04:00,
2013-03-13 03:10:00,50.1,37.2,30.29,NE,54,1.0,12.0,61,0.00,,,0.00,Wunderground v.1.15,2013-03-13 08:10:00,
2013-03-13 03:16:00,49.8,37.3,30.30,NNE,22,2.0,12.0,62,0.00,,,0.00,Wunderground v.1.15,2013-03-13 08:16:00,
2013-03-13 03:22:00,49.4,36.9,30.30,NNE,32,2.0,12.0,62,0.00,,,0.00,Wunderground v.1.15,2013-03-13 08:22:00,
2013-03-13 03:31:00,49.4,37.3,30.29,NE,36,1.0,12.0,63,0.00,,,0.00,Wunderground v.1.15,2013-03-13 08:31:00,
2013-03-13 03:36:00,49.3,37.2,30.29,East,93,1.0,12.0,63,0.00,,,0.00,Wunderground v.1.15,2013-03-13 08:36:00,
2013-03-13 03:42:00,49.3,37.6,30.29,NE,34,1.0,12.0,64,0.00,,,0.00,Wunderground v.1.15,2013-03-13 08:42:00,
2013-03-13 03:48:00,49.1,37.4,30.29,NNE,22,1.0,12.0,64,0.00,,,0.00,Wunderground v.1.15,2013-03-13 08:48:00,
2013-03-13 03:54:00,48.6,37.4,30.29,NNE,27,1.0,12.0,65,0.00,,,0.00,Wunderground v.1.15,2013-03-13 08:54:00,
2013-03-13 04:00:00,48.2,37.4,30.29,NE,43,1.0,12.0,66,0.00,,,0.00,Wunderground v.1.15,2013-03-13 09:00:00,
2013-03-13 04:06:00,48.1,37.3,30.29,NNE,20,1.0,12.0,66,0.00,,,0.00,Wunderground v.1.15,2013-03-13 09:06:00,
2013-03-13 04:12:00,47.7,37.3,30.29,North,3,1.0,12.0,67,0.00,,,0.00,Wunderground v.1.15,2013-03-13 09:12:00,
2013-03-13 04:18:00,47.1,37.1,30.30,North,359,2.0,12.0,68,0.00,,,0.00,Wunderground v.1.15,2013-03-13 09:18:00,
2013-03-13 04:24:00,46.8,37.2,30.30,North,1,2.0,12.0,69,0.00,,,0.00,Wunderground v.1.15,2013-03-13 09:24:00,
2013-03-13 04:30:00,46.7,37.1,30.30,North,6,3.0,12.0,69,0.00,,,0.00,Wunderground v.1.15,2013-03-13 09:30:00,
2013-03-13 04:36:00,46.7,37.4,30.31,NNE,19,4.0,12.0,70,0.00,,,0.00,Wunderground v.1.15,2013-03-13 09:36:00,
2013-03-13 04:42:00,46.7,37.4,30.31,North,6,3.0,12.0,70,0.00,,,0.00,Wunderground v.1.15,2013-03-13 09:42:00,
2013-03-13 04:48:00,46.7,37.4,30.31,NNE,19,2.0,12.0,70,0.00,,,0.00,Wunderground v.1.15,2013-03-13 09:48:00,
2013-03-13 04:54:00,46.7,37.4,30.31,NNE,26,2.0,12.0,70,0.00,,,0.00,Wunderground v.1.15,2013-03-13 09:54:00,
2013-03-13 05:00:00,46.5,37.2,30.31,NNE,26,3.0,12.0,70,0.00,,,0.00,Wunderground v.1.15,2013-03-13 10:00:00,
2013-03-13 05:06:00,46.5,37.2,30.31,North,9,4.0,12.0,70,0.00,,,0.00,Wunderground v.1.15,2013-03-13 10:06:00,
2013-03-13 05:12:00,46.5,37.2,30.31,North,11,4.0,12.0,70,0.00,,,0.00,Wunderground v.1.15,2013-03-13 10:12:00,
2013-03-13 05:18:00,46.3,37.4,30.32,North,11,4.0,12.0,71,0.00,,,0.00,Wunderground v.1.15,2013-03-13 10:18:00,
2013-03-13 05:24:00,46.4,37.5,30.32,NNE,22,4.0,12.0,71,0.00,,,0.00,Wunderground v.1.15,2013-03-13 10:24:00,
2013-03-13 05:30:00,46.2,37.3,30.32,NNE,22,3.0,3.0,71,0.00,,,0.00,Wunderground v.1.15,2013-03-13 10:30:00,
2013-03-13 05:36:00,46.2,37.7,30.32,ENE,59,2.0,12.0,72,0.00,,,0.00,Wunderground v.1.15,2013-03-13 10:36:00,
2013-03-13 05:42:00,46.4,37.5,30.32,NNE,30,2.0,3.0,71,0.00,,,0.00,Wunderground v.1.15,2013-03-13 10:42:00,
2013-03-13 05:48:00,46.4,37.5,30.32,ENE,63,2.0,12.0,71,0.00,,,0.00,Wunderground v.1.15,2013-03-13 10:48:00,
2013-03-13 05:54:00,46.3,37.4,30.33,NNE,26,2.0,12.0,71,0.00,,,0.00,Wunderground v.1.15,2013-03-13 10:54:00,
2013-03-13 06:00:00,46.1,37.2,30.33,NNE,29,3.0,4.0,71,0.00,,,0.00,Wunderground v.1.15,2013-03-13 11:00:00,
2013-03-13 06:06:00,46.0,37.1,30.33,NNE,26,2.0,4.0,71,0.00,,,0.00,Wunderground v.1.15,2013-03-13 11:06:00,
2013-03-13 06:12:00,46.0,36.8,30.33,NNE,23,2.0,2.0,70,0.00,,,0.00,Wunderground v.1.15,2013-03-13 11:12:00,
2013-03-13 06:18:00,46.1,36.9,30.33,NE,46,2.0,2.0,70,0.00,,,0.00,Wunderground v.1.15,2013-03-13 11:18:00,
2013-03-13 06:24:00,45.9,36.7,30.33,NNE,30,1.0,2.0,70,0.00,,,0.00,Wunderground v.1.15,2013-03-13 11:24:00,
2013-03-13 06:30:00,45.9,37.0,30.34,NNE,26,1.0,1.0,71,0.00,,,0.00,Wunderground v.1.15,2013-03-13 11:30:00,
2013-03-13 06:36:00,46.0,37.1,30.34,NNE,15,2.0,3.0,71,0.00,,,0.00,Wunderground v.1.15,2013-03-13 11:36:00,
2013-03-13 06:42:00,46.0,37.5,30.34,ENE,59,1.0,3.0,72,0.00,,,0.00,Wunderground v.1.15,2013-03-13 11:42:00,
2013-03-13 06:48:00,45.7,37.2,30.34,NNE,18,1.0,3.0,72,0.00,,,0.00,Wunderground v.1.15,2013-03-13 11:48:00,
2013-03-13 06:54:00,45.6,37.8,30.35,NE,36,1.0,1.0,74,0.00,,,0.00,Wunderground v.1.15,2013-03-13 11:54:00,
2013-03-13 07:00:00,45.8,38.0,30.35,NE,56,0.0,4.0,74,0.00,,,0.00,Wunderground v.1.15,2013-03-13 12:00:00,
2013-03-13 07:06:00,45.9,38.4,30.35,East,99,0.0,4.0,75,0.00,,,0.00,Wunderground v.1.15,2013-03-13 12:06:00,
2013-03-13 07:12:00,45.7,38.6,30.35,ESE,103,0.0,4.0,76,0.00,,,0.00,Wunderground v.1.15,2013-03-13 12:12:00,
2013-03-13 07:18:00,45.6,38.5,30.35,SE,129,0.0,4.0,76,0.00,,,0.00,Wunderground v.1.15,2013-03-13 12:18:00,
2013-03-13 07:24:00,45.6,38.8,30.35,SE,138,0.0,4.0,77,0.00,,,0.00,Wunderground v.1.15,2013-03-13 12:24:00,
2013-03-13 07:30:00,45.5,38.7,30.36,ESE,105,0.0,4.0,77,0.00,,,0.00,Wunderground v.1.15,2013-03-13 12:30:00,
2013-03-13 07:36:00,45.5,38.4,30.36,East,89,1.0,4.0,76,0.00,,,0.00,Wunderground v.1.15,2013-03-13 12:36:00,
2013-03-13 07:42:00,45.5,38.4,30.36,SE,140,0.0,4.0,76,0.00,,,0.00,Wunderground v.1.15,2013-03-13 12:42:00,
2013-03-13 07:48:00,45.4,38.3,30.36,SE,138,1.0,4.0,76,0.00,,,0.00,Wunderground v.1.15,2013-03-13 12:48:00,
2013-03-13 07:54:00,45.4,38.3,30.37,SE,129,1.0,4.0,76,0.00,,,0.00,Wunderground v.1.15,2013-03-13 12:54:00,
2013-03-13 08:00:00,45.5,38.4,30.37,SE,127,1.0,4.0,76,0.00,,,0.00,Wunderground v.1.15,2013-03-13 13:00:00,
2013-03-13 08:06:00,45.5,38.4,30.37,ESE,113,1.0,4.0,76,0.00,,,0.00,Wunderground v.1.15,2013-03-13 13:06:00,
2013-03-13 08:12:00,45.6,38.1,30.38,NE,46,0.0,4.0,75,0.00,,,0.00,Wunderground v.1.15,2013-03-13 13:12:00,
2013-03-13 08:18:00,46.0,38.2,30.38,North,1,0.0,4.0,74,0.00,,,0.00,Wunderground v.1.15,2013-03-13 13:18:00,
2013-03-13 08:24:00,45.6,38.5,30.39,North,360,1.0,4.0,76,0.00,,,0.00,Wunderground v.1.15,2013-03-13 13:24:00,
2013-03-13 08:30:00,45.6,38.1,30.39,NNE,15,2.0,4.0,75,0.00,,,0.00,Wunderground v.1.15,2013-03-13 13:30:00,
2013-03-13 08:36:00,46.3,38.5,30.39,North,358,2.0,4.0,74,0.00,,,0.00,Wunderground v.1.15,2013-03-13 13:36:00,
2013-03-13 08:42:00,46.8,38.6,30.40,North,11,2.0,4.0,73,0.00,,,0.00,Wunderground v.1.15,2013-03-13 13:42:00,
2013-03-13 08:48:00,47.7,38.0,30.40,NE,51,1.0,4.0,69,0.00,,,0.00,Wunderground v.1.15,2013-03-13 13:48:00,
2013-03-13 08:54:00,49.1,37.8,30.40,NE,49,1.0,4.0,65,0.00,,,0.00,Wunderground v.1.15,2013-03-13 13:54:00,
2013-03-13 09:00:00,50.2,38.1,30.41,NE,37,1.0,1.0,63,0.00,,,0.00,Wunderground v.1.15,2013-03-13 14:00:00,
2013-03-13 09:06:00,51.0,37.2,30.41,NE,38,1.0,4.0,59,0.00,,,0.00,Wunderground v.1.15,2013-03-13 14:06:00,
2013-03-13 09:12:00,51.7,36.5,30.41,ESE,110,2.0,4.0,56,0.00,,,0.00,Wunderground v.1.15,2013-03-13 14:12:00,
2013-03-13 09:18:00,52.2,37.0,30.41,ENE,65,2.0,4.0,56,0.00,,,0.00,Wunderground v.1.15,2013-03-13 14:18:00,
2013-03-13 09:24:00,52.6,36.4,30.42,East,96,2.0,4.0,54,0.00,,,0.00,Wunderground v.1.15,2013-03-13 14:24:00,
2013-03-13 09:30:00,52.8,36.6,30.42,NNE,27,2.0,4.0,54,0.00,,,0.00,Wunderground v.1.15,2013-03-13 14:30:00,
2013-03-13 09:36:00,53.2,36.0,30.42,ENE,60,2.0,5.0,52,0.00,,,0.00,Wunderground v.1.15,2013-03-13 14:36:00,
2013-03-13 09:42:00,54.0,36.8,30.42,East,96,2.0,4.0,52,0.00,,,0.00,Wunderground v.1.15,2013-03-13 14:42:00,
2013-03-13 09:48:00,54.7,36.4,30.43,ESE,112,2.0,4.0,50,0.00,,,0.00,Wunderground v.1.15,2013-03-13 14:48:00,
2013-03-13 09:54:00,55.3,36.5,30.43,SSE,158,2.0,4.0,49,0.00,,,0.00,Wunderground v.1.15,2013-03-13 14:54:00,
2013-03-13 10:00:00,55.8,36.9,30.43,East,89,3.0,3.0,49,0.00,,,0.00,Wunderground v.1.15,2013-03-13 15:00:00,
2013-03-13 10:06:00,56.8,37.3,30.43,SE,124,2.0,4.0,48,0.00,,,0.00,Wunderground v.1.15,2013-03-13 15:06:00,
2013-03-13 10:12:00,57.1,37.6,30.43,SE,138,2.0,5.0,48,0.00,,,0.00,Wunderground v.1.15,2013-03-13 15:12:00,
2013-03-13 10:18:00,57.1,38.1,30.43,ESE,117,4.0,5.0,49,0.00,,,0.00,Wunderground v.1.15,2013-03-13 15:18:00,
2013-03-13 10:24:00,57.4,37.9,30.43,SE,146,3.0,5.0,48,0.00,,,0.00,Wunderground v.1.15,2013-03-13 15:24:00,
2013-03-13 10:30:00,57.4,37.3,30.43,SSE,152,4.0,6.0,47,0.00,,,0.00,Wunderground v.1.15,2013-03-13 15:30:00,
2013-03-13 10:36:00,57.9,37.2,30.43,East,79,3.0,6.0,46,0.00,,,0.00,Wunderground v.1.15,2013-03-13 15:36:00,
2013-03-13 10:42:00,58.2,36.9,30.43,SE,132,3.0,7.0,45,0.00,,,0.00,Wunderground v.1.15,2013-03-13 15:42:00,
2013-03-13 10:48:00,59.1,37.8,30.43,ESE,106,4.0,7.0,45,0.00,,,0.00,Wunderground v.1.15,2013-03-13 15:48:00,
2013-03-13 10:54:00,60.1,38.1,30.43,East,101,3.0,4.0,44,0.00,,,0.00,Wunderground v.1.15,2013-03-13 15:54:00,
2013-03-13 11:00:00,60.2,37.6,30.43,SE,132,3.0,3.0,43,0.00,,,0.00,Wunderground v.1.15,2013-03-13 16:00:00,
2013-03-13 11:06:00,60.4,37.8,30.44,ESE,117,4.0,10.0,43,0.00,,,0.00,Wunderground v.1.15,2013-03-13 16:06:00,
2013-03-13 11:12:00,60.3,37.1,30.43,SE,145,4.0,4.0,42,0.00,,,0.00,Wunderground v.1.15,2013-03-13 16:12:00,
2013-03-13 11:18:00,61.0,37.7,30.43,ESE,110,4.0,4.0,42,0.00,,,0.00,Wunderground v.1.15,2013-03-13 16:18:00,
2013-03-13 11:24:00,61.5,36.9,30.43,SE,136,4.0,5.0,40,0.00,,,0.00,Wunderground v.1.15,2013-03-13 16:24:00,
2013-03-13 11:30:00,61.2,36.0,30.43,ESE,105,5.0,7.0,39,0.00,,,0.00,Wunderground v.1.15,2013-03-13 16:30:00,
2013-03-13 11:36:00,61.9,37.3,30.43,SSE,154,5.0,7.0,40,0.00,,,0.00,Wunderground v.1.15,2013-03-13 16:36:00,
2013-03-13 11:42:00,62.7,36.0,30.43,SSE,148,5.0,9.0,37,0.00,,,0.00,Wunderground v.1.15,2013-03-13 16:42:00,
2013-03-13 11:48:00,62.8,36.1,30.43,SSE,158,6.0,9.0,37,0.00,,,0.00,Wunderground v.1.15,2013-03-13 16:48:00,
2013-03-13 11:54:00,62.9,35.5,30.43,SE,132,7.0,9.0,36,0.00,,,0.00,Wunderground v.1.15,2013-03-13 16:54:00,
2013-03-13 12:00:00,63.0,36.3,30.43,SSE,156,7.0,7.0,37,0.00,,,0.00,Wunderground v.1.15,2013-03-13 17:00:00,
2013-03-13 12:06:00,63.1,37.1,30.42,SSW,193,7.0,10.0,38,0.00,,,0.00,Wunderground v.1.15,2013-03-13 17:06:00,
2013-03-13 12:12:00,63.5,36.0,30.42,SE,136,8.0,8.0,36,0.00,,,0.00,Wunderground v.1.15,2013-03-13 17:12:00,
2013-03-13 12:18:00,64.1,35.9,30.42,SE,145,8.0,13.0,35,0.00,,,0.00,Wunderground v.1.15,2013-03-13 17:18:00,
2013-03-13 12:24:00,64.6,37.0,30.42,SE,146,8.0,10.0,36,0.00,,,0.00,Wunderground v.1.15,2013-03-13 17:24:00,
2013-03-13 12:30:00,65.3,37.6,30.42,SE,145,8.0,8.0,36,0.00,,,0.00,Wunderground v.1.15,2013-03-13 17:30:00,
2013-03-13 12:36:00,65.2,37.6,30.42,SSE,154,8.0,14.0,36,0.00,,,0.00,Wunderground v.1.15,2013-03-13 17:36:00,
2013-03-13 12:42:00,65.0,37.4,30.42,SE,146,9.0,9.0,36,0.00,,,0.00,Wunderground v.1.15,2013-03-13 17:42:00,
2013-03-13 12:48:00,65.7,37.3,30.42,SSE,153,7.0,9.0,35,0.00,,,0.00,Wunderground v.1.15,2013-03-13 17:48:00,
2013-03-13 12:54:00,66.7,36.7,30.41,SSE,160,7.0,11.0,33,0.00,,,0.00,Wunderground v.1.15,2013-03-13 17:54:00,
2013-03-13 13:00:00,66.5,35.7,30.41,SSW,200,8.0,8.0,32,0.00,,,0.00,Wunderground v.1.15,2013-03-13 18:00:00,
2013-03-13 13:06:00,66.6,36.6,30.41,SSE,154,8.0,9.0,33,0.00,,,0.00,Wunderground v.1.15,2013-03-13 18:06:00,
2013-03-13 13:12:00,67.3,37.2,30.40,SSE,163,8.0,13.0,33,0.00,,,0.00,Wunderground v.1.15,2013-03-13 18:12:00,
2013-03-13 13:18:00,66.9,36.8,30.40,WSW,241,10.0,13.0,33,0.00,,,0.00,Wunderground v.1.15,2013-03-13 18:18:00,
2013-03-13 13:24:00,67.7,38.3,30.39,South,172,9.0,9.0,34,0.00,,,0.00,Wunderground v.1.15,2013-03-13 18:24:00,
2013-03-13 13:30:00,67.5,38.1,30.39,SSE,151,9.0,15.0,34,0.00,,,0.00,Wunderground v.1.15,2013-03-13 18:30:00,
2013-03-13 13:36:00,67.7,37.5,30.39,SSW,197,10.0,15.0,33,0.00,,,0.00,Wunderground v.1.15,2013-03-13 18:36:00,
2013-03-13 13:42:00,67.6,39.0,30.38,SSW,200,10.0,10.0,35,0.00,,,0.00,Wunderground v.1.15,2013-03-13 18:42:00,
2013-03-13 13:48:00,67.9,39.2,30.38,South,186,9.0,10.0,35,0.00,,,0.00,Wunderground v.1.15,2013-03-13 18:48:00,
2013-03-13 13:54:00,67.9,39.2,30.37,SE,143,9.0,11.0,35,0.00,,,0.00,Wunderground v.1.15,2013-03-13 18:54:00,
2013-03-13 14:00:00,68.0,39.3,30.37,SSW,195,10.0,12.0,35,0.00,,,0.00,Wunderground v.1.15,2013-03-13 19:00:00,
2013-03-13 14:06:00,68.2,40.2,30.36,South,183,9.0,12.0,36,0.00,,,0.00,Wunderground v.1.15,2013-03-13 19:06:00,
2013-03-13 14:12:00,69.0,39.4,30.36,SE,137,7.0,11.0,34,0.00,,,0.00,Wunderground v.1.15,2013-03-13 19:12:00,
2013-03-13 14:24:00,69.3,38.9,30.35,South,173,8.0,9.0,33,0.00,,,0.00,Wunderground v.1.15,2013-03-13 19:24:00,
2013-03-13 14:30:00,69.4,39.8,30.34,SE,145,10.0,10.0,34,0.00,,,0.00,Wunderground v.1.15,2013-03-13 19:30:00,
2013-03-13 14:36:00,69.3,39.7,30.34,SE,138,9.0,10.0,34,0.00,,,0.00,Wunderground v.1.15,2013-03-13 19:36:00,
2013-03-13 14:42:00,69.3,39.7,30.34,SSE,162,10.0,11.0,34,0.00,,,0.00,Wunderground v.1.15,2013-03-13 19:42:00,
2013-03-13 14:48:00,69.5,38.3,30.34,SE,138,10.0,16.0,32,0.00,,,0.00,Wunderground v.1.15,2013-03-13 19:48:00,
2013-03-13 14:54:00,69.4,38.2,30.33,ESE,107,10.0,17.0,32,0.00,,,0.00,Wunderground v.1.15,2013-03-13 19:54:00,
2013-03-13 15:00:00,70.3,38.2,30.33,SE,139,10.0,10.0,31,0.00,,,0.00,Wunderground v.1.15,2013-03-13 20:00:00,
2013-03-13 15:06:00,70.1,38.0,30.33,SSE,166,9.0,13.0,31,0.00,,,0.00,Wunderground v.1.15,2013-03-13 20:06:00,
2013-03-13 15:12:00,70.3,39.0,30.33,SSW,195,8.0,11.0,32,0.00,,,0.00,Wunderground v.1.15,2013-03-13 20:12:00,
2013-03-13 15:18:00,70.8,37.8,30.32,SE,143,7.0,11.0,30,0.00,,,0.00,Wunderground v.1.15,2013-03-13 20:18:00,
2013-03-13 15:24:00,70.8,37.8,30.33,SSE,148,8.0,11.0,30,0.00,,,0.00,Wunderground v.1.15,2013-03-13 20:24:00,
2013-03-13 15:30:00,71.2,37.3,30.33,SE,132,8.0,8.0,29,0.00,,,0.00,Wunderground v.1.15,2013-03-13 20:30:00,
2013-03-13 15:36:00,71.0,37.1,30.32,ESE,105,6.0,8.0,29,0.00,,,0.00,Wunderground v.1.15,2013-03-13 20:36:00,
2013-03-13 15:42:00,71.7,37.7,30.32,SE,135,5.0,8.0,29,0.00,,,0.00,Wunderground v.1.15,2013-03-13 20:42:00,
2013-03-13 15:48:00,71.2,37.3,30.32,SE,143,7.0,11.0,29,0.00,,,0.00,Wunderground v.1.15,2013-03-13 20:48:00,
2013-03-13 15:54:00,71.2,38.2,30.32,SSW,200,6.0,10.0,30,0.00,,,0.00,Wunderground v.1.15,2013-03-13 20:54:00,
2013-03-13 16:00:00,71.2,37.3,30.31,SSE,154,7.0,7.0,29,0.00,,,0.00,Wunderground v.1.15,2013-03-13 21:00:00,
2013-03-13 16:06:00,71.4,37.5,30.31,WSW,250,8.0,8.0,29,0.00,,,0.00,Wunderground v.1.15,2013-03-13 21:06:00,
2013-03-13 16:12:00,71.8,37.8,30.31,SSE,153,6.0,8.0,29,0.00,,,0.00,Wunderground v.1.15,2013-03-13 21:12:00,
2013-03-13 16:18:00,72.3,37.4,30.31,SSE,160,7.0,9.0,28,0.00,,,0.00,Wunderground v.1.15,2013-03-13 21:18:00,
2013-03-13 16:24:00,72.2,37.3,30.31,SSW,203,6.0,8.0,28,0.00,,,0.00,Wunderground v.1.15,2013-03-13 21:24:00,
2013-03-13 16:30:00,71.7,37.7,30.30,SSW,193,5.0,5.0,29,0.00,,,0.00,Wunderground v.1.15,2013-03-13 21:30:00,
2013-03-13 16:36:00,72.0,38.0,30.31,SSW,203,4.0,10.0,29,0.00,,,0.00,Wunderground v.1.15,2013-03-13 21:36:00,
2013-03-13 16:42:00,72.0,37.1,30.30,South,187,8.0,10.0,28,0.00,,,0.00,Wunderground v.1.15,2013-03-13 21:42:00,
2013-03-13 16:48:00,71.9,37.0,30.30,SW,219,7.0,10.0,28,0.00,,,0.00,Wunderground v.1.15,2013-03-13 21:48:00,
2013-03-13 16:54:00,71.5,37.6,30.30,SSE,166,8.0,11.0,29,0.00,,,0.00,Wunderground v.1.15,2013-03-13 21:54:00,
2013-03-13 17:00:00,71.6,37.6,30.30,South,170,8.0,14.0,29,0.00,,,0.00,Wunderground v.1.15,2013-03-13 22:00:00,
2013-03-13 17:06:00,72.2,37.3,30.29,ESE,115,7.0,14.0,28,0.00,,,0.00,Wunderground v.1.15,2013-03-13 22:06:00,
2013-03-13 17:12:00,72.0,38.0,30.29,SW,215,6.0,10.0,29,0.00,,,0.00,Wunderground v.1.15,2013-03-13 22:12:00,
2013-03-13 17:18:00,72.0,38.0,30.29,SSE,148,4.0,10.0,29,0.00,,,0.00,Wunderground v.1.15,2013-03-13 22:18:00,
2013-03-13 17:24:00,72.0,38.0,30.29,SSE,167,6.0,10.0,29,0.00,,,0.00,Wunderground v.1.15,2013-03-13 22:24:00,
2013-03-13 17:30:00,72.0,38.0,30.29,SSW,202,8.0,8.0,29,0.00,,,0.00,Wunderground v.1.15,2013-03-13 22:30:00,
2013-03-13 17:36:00,71.7,37.7,30.29,South,169,8.0,10.0,29,0.00,,,0.00,Wunderground v.1.15,2013-03-13 22:36:00,
2013-03-13 17:42:00,71.8,37.8,30.29,South,177,6.0,9.0,29,0.00,,,0.00,Wunderground v.1.15,2013-03-13 22:42:00,
2013-03-13 17:48:00,71.4,38.3,30.29,SSE,149,8.0,11.0,30,0.00,,,0.00,Wunderground v.1.15,2013-03-13 22:48:00,
2013-03-13 17:54:00,71.3,38.2,30.29,SSE,148,8.0,10.0,30,0.00,,,0.00,Wunderground v.1.15,2013-03-13 22:54:00,
2013-03-13 18:00:00,71.6,37.6,30.29,SSE,160,7.0,10.0,29,0.00,,,0.00,Wunderground v.1.15,2013-03-13 23:00:00,
2013-03-13 18:06:00,71.2,37.3,30.29,South,188,8.0,10.0,29,0.00,,,0.00,Wunderground v.1.15,2013-03-13 23:06:00,
2013-03-13 18:12:00,71.1,38.1,30.29,South,181,7.0,7.0,30,0.00,,,0.00,Wunderground v.1.15,2013-03-13 23:12:00,
2013-03-13 18:18:00,71.1,38.1,30.29,South,186,6.0,12.0,30,0.00,,,0.00,Wunderground v.1.15,2013-03-13 23:18:00,
2013-03-13 18:24:00,71.0,38.0,30.29,ESE,113,6.0,6.0,30,0.00,,,0.00,Wunderground v.1.15,2013-03-13 23:24:00,
2013-03-13 18:30:00,71.1,38.9,30.29,SSE,155,6.0,6.0,31,0.00,,,0.00,Wunderground v.1.15,2013-03-13 23:30:00,
2013-03-13 18:36:00,70.7,38.6,30.29,SSW,200,6.0,6.0,31,0.00,,,0.00,Wunderground v.1.15,2013-03-13 23:36:00,
2013-03-13 18:42:00,70.4,38.3,30.29,South,172,6.0,9.0,31,0.00,,,0.00,Wunderground v.1.15,2013-03-13 23:42:00,
2013-03-13 18:48:00,70.2,38.1,30.29,SSE,156,7.0,9.0,31,0.00,,,0.00,Wunderground v.1.15,2013-03-13 23:48:00,
2013-03-13 18:54:00,69.9,38.7,30.29,SE,134,7.0,10.0,32,0.00,,,0.00,Wunderground v.1.15,2013-03-13 23:54:00,
2013-03-13 19:00:00,69.6,38.4,30.29,SSE,150,7.0,9.0,32,0.00,,,0.00,Wunderground v.1.15,2013-03-14 00:00:00,
2013-03-13 19:06:00,69.4,38.2,30.29,SE,143,7.0,9.0,32,0.00,,,0.00,Wunderground v.1.15,2013-03-14 00:06:00,
2013-03-13 19:12:00,69.1,38.8,30.29,SSE,151,6.0,6.0,33,0.00,,,0.00,Wunderground v.1.15,2013-03-14 00:12:00,
2013-03-13 19:18:00,68.7,38.4,30.29,SSE,150,5.0,9.0,33,0.00,,,0.00,Wunderground v.1.15,2013-03-14 00:18:00,
2013-03-13 19:24:00,68.3,38.8,30.29,SSE,155,5.0,7.0,34,0.00,,,0.00,Wunderground v.1.15,2013-03-14 00:24:00,
2013-03-13 19:30:00,67.7,38.3,30.29,SE,129,5.0,5.0,34,0.00,,,0.00,Wunderground v.1.15,2013-03-14 00:30:00,
2013-03-13 19:36:00,67.0,38.4,30.30,SSE,151,5.0,6.0,35,0.00,,,0.00,Wunderground v.1.15,2013-03-14 00:36:00,
2013-03-13 19:42:00,66.3,38.5,30.30,SE,130,4.0,4.0,36,0.00,,,0.00,Wunderground v.1.15,2013-03-14 00:42:00,
2013-03-13 19:48:00,65.8,38.8,30.30,SSE,150,4.0,6.0,37,0.00,,,0.00,Wunderground v.1.15,2013-03-14 00:48:00,
2013-03-13 19:54:00,65.3,38.3,30.30,SE,140,5.0,7.0,37,0.00,,,0.00,Wunderground v.1.15,2013-03-14 00:54:00,
2013-03-13 20:00:00,64.9,38.7,30.30,SE,138,5.0,5.0,38,0.00,,,0.00,Wunderground v.1.15,2013-03-14 01:00:00,
2013-03-13 20:06:00,64.5,39.0,30.30,SE,127,5.0,6.0,39,0.00,,,0.00,Wunderground v.1.15,2013-03-14 01:06:00,
2013-03-13 20:12:00,64.3,38.8,30.30,ESE,121,5.0,5.0,39,0.00,,,0.00,Wunderground v.1.15,2013-03-14 01:12:00,
2013-03-13 20:18:00,64.0,38.5,30.30,SE,134,4.0,5.0,39,0.00,,,0.00,Wunderground v.1.15,2013-03-14 01:18:00,
2013-03-13 20:24:00,63.6,38.2,30.31,SE,127,4.0,6.0,39,0.00,,,0.00,Wunderground v.1.15,2013-03-14 01:24:00,
2013-03-13 20:30:00,63.4,38.0,30.31,SE,141,5.0,5.0,39,0.00,,,0.00,Wunderground v.1.15,2013-03-14 01:30:00,
2013-03-13 20:36:00,63.2,38.5,30.31,SE,135,4.0,5.0,40,0.00,,,0.00,Wunderground v.1.15,2013-03-14 01:36:00,
2013-03-13 20:42:00,62.9,38.2,30.31,SE,138,4.0,4.0,40,0.00,,,0.00,Wunderground v.1.15,2013-03-14 01:42:00,
2013-03-13 20:48:00,62.8,38.1,30.31,SE,138,5.0,5.0,40,0.00,,,0.00,Wunderground v.1.15,2013-03-14 01:48:00,
2013-03-13 20:54:00,62.6,37.9,30.31,SSE,157,5.0,6.0,40,0.00,,,0.00,Wunderground v.1.15,2013-03-14 01:54:00,
2013-03-13 21:00:00,62.2,38.2,30.31,SE,136,5.0,8.0,41,0.00,,,0.00,Wunderground v.1.15,2013-03-14 02:00:00,
2013-03-13 21:06:00,62.2,38.2,30.31,SE,137,5.0,8.0,41,0.00,,,0.00,Wunderground v.1.15,2013-03-14 02:06:00,
2013-03-13 21:12:00,62.0,38.0,30.31,SSE,149,5.0,6.0,41,0.00,,,0.00,Wunderground v.1.15,2013-03-14 02:12:00,
2013-03-13 21:18:00,61.8,37.8,30.32,SSE,155,5.0,6.0,41,0.00,,,0.00,Wunderground v.1.15,2013-03-14 02:18:00,
2013-03-13 21:24:00,61.8,37.8,30.32,SSE,148,5.0,5.0,41,0.00,,,0.00,Wunderground v.1.15,2013-03-14 02:24:00,
2013-03-13 21:30:00,61.7,38.4,30.32,SE,144,5.0,5.0,42,0.00,,,0.00,Wunderground v.1.15,2013-03-14 02:30:00,
2013-03-13 21:36:00,61.5,38.2,30.33,SE,144,5.0,6.0,42,0.00,,,0.00,Wunderground v.1.15,2013-03-14 02:36:00,
2013-03-13 21:42:00,61.4,38.1,30.33,SSE,156,5.0,5.0,42,0.00,,,0.00,Wunderground v.1.15,2013-03-14 02:42:00,
2013-03-13 21:48:00,61.1,38.4,30.33,SSE,150,5.0,7.0,43,0.00,,,0.00,Wunderground v.1.15,2013-03-14 02:48:00,
2013-03-13 21:54:00,61.0,38.3,30.33,SSE,166,5.0,7.0,43,0.00,,,0.00,Wunderground v.1.15,2013-03-14 02:54:00,
2013-03-13 22:06:00,60.9,38.2,30.33,SSE,158,5.0,7.0,43,0.00,,,0.00,Wunderground v.1.15,2013-03-14 03:06:00,
2013-03-13 22:14:00,60.2,38.2,30.33,SE,145,5.0,6.0,44,0.00,,,0.00,Wunderground v.1.15,2013-03-14 03:14:00,
2013-03-13 22:24:00,59.6,38.2,30.33,SSE,156,5.0,5.0,45,0.00,,,0.00,Wunderground v.1.15,2013-03-14 03:24:00,
2013-03-13 22:36:00,59.5,38.7,30.34,SE,136,6.0,7.0,46,0.00,,,0.00,Wunderground v.1.15,2013-03-14 03:36:00,
2013-03-13 22:42:00,59.5,38.7,30.34,SSE,158,6.0,6.0,46,0.00,,,0.00,Wunderground v.1.15,2013-03-14 03:42:00,
2013-03-13 22:48:00,59.3,38.5,30.34,SSE,153,5.0,6.0,46,0.00,,,0.00,Wunderground v.1.15,2013-03-14 03:48:00,
2013-03-13 22:54:00,59.4,38.6,30.34,SSE,151,6.0,6.0,46,0.00,,,0.00,Wunderground v.1.15,2013-03-14 03:54:00,
2013-03-13 23:00:00,59.0,38.8,30.34,SE,146,7.0,7.0,47,0.00,,,0.00,Wunderground v.1.15,2013-03-14 04:00:00,
2013-03-13 23:02:00,59.0,38.8,30.34,SE,131,7.0,11.0,47,0.00,,,0.00,Wunderground v.1.15,2013-03-14 04:02:00,
2013-03-13 23:04:00,59.0,38.8,30.34,SE,136,8.0,11.0,47,0.00,,,0.00,Wunderground v.1.15,2013-03-14 04:04:00,
2013-03-13 23:10:00,58.9,38.7,30.34,SE,124,10.0,13.0,47,0.00,,,0.00,Wunderground v.1.15,2013-03-14 04:10:00,
2013-03-13 23:12:00,58.7,38.5,30.34,SSE,150,10.0,13.0,47,0.00,,,0.00,Wunderground v.1.15,2013-03-14 04:12:00,
2013-03-13 23:18:00,58.2,38.6,30.34,SE,146,10.0,13.0,48,0.00,,,0.00,Wunderground v.1.15,2013-03-14 04:18:00,
2013-03-13 23:24:00,58.0,38.9,30.34,SE,145,10.0,14.0,49,0.00,,,0.00,Wunderground v.1.15,2013-03-14 04:24:00,
2013-03-13 23:30:00,57.8,38.8,30.34,SE,141,11.0,18.0,49,0.00,,,0.00,Wunderground v.1.15,2013-03-14 04:30:00,
2013-03-13 23:36:00,57.4,38.9,30.34,SE,145,12.0,18.0,50,0.00,,,0.00,Wunderground v.1.15,2013-03-14 04:36:00,
2013-03-13 23:42:00,57.3,38.8,30.34,SE,145,12.0,14.0,50,0.00,,,0.00,Wunderground v.1.15,2013-03-14 04:42:00,
2013-03-13 23:48:00,57.1,38.6,30.34,SE,133,11.0,14.0,50,0.00,,,0.00,Wunderground v.1.15,2013-03-14 04:48:00,
2013-03-13 23:54:00,56.9,38.4,30.34,South,180,11.0,12.0,50,0.00,,,0.00,Wunderground v.1.15,2013-03-14 04:54:00,